Temperature
1 1 2 2 3 3 4 6 7 8 9 10 11 11 11 11 12 13 13 13 14 14 14 14 14 15 15 15 16 16 16 16 16 16 16 16 16 17 16 16 16 16 16
-1 -1 -0 0 0 1 2 3 4 5 6 7 9 10 10 11 11 12 13 13 13 13 13 14 14 14 15 15 16 15 15 15 16 16 16 16 16 16 16 16 16 16 16
-2 -2 -2 -2 -2 -1 0 1 2 3 4 5 7 8 10 10 11 11 12 12 13 13 13 13 13 14 14 15 15 16 15 15 15 16 16 16 16 16 16 16 16 16 16
-3 -3 -3 -3 -3 -3 -2 -1 -0 1 2 3 4 6 8 9 10 11 11 12 12 12 13 13 13 13 13 14 15 15 16 15 15 15 15 15 16 16 16 16 16 16 16
-4 -4 -4 -5 -5 -4 -4 -3 -3 -2 -0 1 3 4 5 7 9 10 11 11 12 12 12 12 13 13 13 13 14 15 16 15 15 15 15 15 15 15 15 15 15 16 16
-5 -5 -6 -5 -5 -5 -5 -5 -5 -4 -3 -1 0 2 4 5 7 9 10 10 11 12 12 12 12 12 12 13 13 14 15 15 15 15 15 15 15 15 15 15 15 15 16
-6 -6 -6 -6 -6 -6 -6 -6 -6 -5 -5 -4 -2 1 4 5 6 8 10 10 10 11 11 12 12 12 12 12 13 13 14 14 15 15 15 15 15 15 15 15 15 15 16
-7 -7 -7 -7 -7 -7 -6 -6 -6 -6 -6 -5 -5 -4 -1 2 5 7 8 9 10 10 11 11 12 12 12 12 12 13 13 14 14 15 15 15 15 15 15 15 16 16 15
-8 -8 -8 -8 -8 -8 -7 -7 -6 -6 -6 -5 -5 -4 -3 -1 -1 6 7 8 9 10 10 11 11 12 12 12 12 12 13 13 14 14 15 15 15 15 15 15 15 16 16
-8 -9 -9 -9 -9 -8 -8 -8 -7 -7 -6 -6 -5 -5 -4 -4 -3 -1 5 7 7 8 9 10 11 11 11 12 12 12 12 13 13 14 14 15 15 15 15 15 15 15 16
-9 -9 -9 -10 -9 -9 -9 -8 -8 -7 -7 -6 -5 -5 -5 -4 -4 -3 -2 4 6 7 7 9 10 11 11 11 12 12 12 13 13 13 14 14 15 14 14 14 14 15 15
-9 -10 -10 -10 -10 -10 -9 -9 -8 -8 -7 -6 -6 -5 -5 -5 -4 -3 -2 -1 1 5 6 8 9 10 11 11 11 11 12 12 13 13 13 14 14 14 14 14 14 14 15
-10 -11 -11 -11 -11 -10 -10 -9 -9 -8 -7 -7 -6 -6 -6 -5 -4 -4 -3 -2 -1 2 4 7 8 9 10 10 11 11 11 12 12 12 13 13 13 13 14 14 14 14 14
-11 -11 -12 -11 -11 -11 -10 -10 -9 -8 -8 -7 -7 -6 -6 -6 -5 -4 -3 -3 -2 -1 1 4 7 8 9 9 10 10 11 11 12 12 12 12 13 13 13 13 14 14 14
-12 -12 -12 -12 -12 -11 -11 -10 -9 -9 -8 -7 -7 -7 -6 -6 -5 -4 -3 -3 -2 -1 0 3 5 7 8 9 9 10 10 11 11 12 12 12 12 12 13 13 13 14 14
-12 -12 -12 -12 -12 -12 -11 -11 -10 -9 -8 -7 -7 -7 -7 -6 -5 -4 -3 -2 -2 -2 -1 1 4 6 7 8 8 9 10 10 11 11 12 12 12 12 13 13 13 13 13
-13 -13 -13 -13 -13 -12 -11 -11 -10 -9 -8 -8 -7 -7 -7 -6 -5 -4 -3 -2 -2 -1 -1 0 2 5 6 7 8 8 9 9 10 11 11 12 12 12 13 13 13 13 13
-13 -13 -13 -13 -13 -12 -12 -11 -10 -9 -8 -8 -8 -7 -7 -6 -5 -4 -3 -2 -1 -1 -0 0 2 3 5 6 7 8 8 9 9 10 11 11 12 12 12 12 12 12 12
-13 -13 -13 -14 -13 -13 -12 -11 -10 -9 -8 -8 -8 -7 -7 -6 -5 -4 -3 -2 -1 -0 0 1 2 3 4 5 6 7 8 8 9 9 10 10 11 12 12 12 12 12 12
-14 -14 -14 -13 -13 -13 -12 -11 -9 -8 -8 -8 -8 -7 -7 -7 -6 -4 -3 -2 -1 -1 -0 0 1 2 3 4 5 6 7 7 8 8 8 9 10 10 11 11 11 11 11
-14 -14 -14 -13 -13 -13 -12 -10 -9 -8 -8 -8 -8 -8 -8 -7 -7 -5 -4 -3 -2 -1 -1 -0 1 2 3 3 4 5 6 7 7 7 8 8 9 9 9 10 10 10 10
-14 -14 -14 -13 -13 -13 -11 -9 -8 -8 -8 -8 -8 -9 -8 -8 -8 -7 -6 -5 -4 -3 -2 -1 0 1 2 2 3 4 5 6 7 7 7 8 8 8 8 8 9 9 9
-14 -14 -14 -13 -13 -12 -11 -9 -9 -9 -9 -9 -9 -9 -9 -9 -8 -8 -7 -6 -5 -5 -4 -3 -1 -1 0 1 2 3 4 5 6 7 7 7 7 7 7 6 6 6 6
-14 -13 -13 -13 -13 -12 -11 -9 -9 -9 -9 -9 -9 -9 -9 -9 -9 -9 -8 -7 -7 -6 -6 -4 -3 -3 -2 -0 1 3 4 5 6 6 6 6 5 5 5 4 4 5 5
-13 -13 -13 -13 -13 -12 -11 -10 -10 -10 -10 -10 -10 -9 -10 -10 -9 -10 -9 -9 -7 -7 -6 -6 -5 -4 -3 -1 0 2 3 4 5 5 5 5 4 4 4 3 3 3 3
-13 -13 -13 -13 -13 -12 -11 -11 -11 -11 -11 -11 -10 -10 -10 -10 -10 -10 -10 -10 -9 -8 -7 -5 -4 -3 -2 -1 -0 1 2 3 3 3 4 4 3 3 2 2 2 2 2
Wind_Speed
18 20 20 20 20 20 19 17 15 15 15 16 17 15 11 12 13 13 11 19 22 19 17 16 17 18 17 18 18 20 22 23 21 19 17 15 15 14 13 12 13 15 15
21 20 18 18 19 21 21 18 16 13 11 12 14 15 14 13 13 13 13 15 23 22 19 18 19 19 20 20 20 20 22 24 23 21 20 18 16 16 15 14 14 15 15
23 22 17 15 19 22 21 18 15 13 12 13 15 16 13 13 14 14 13 11 16 21 21 20 20 20 21 22 21 21 22 24 25 24 22 20 18 17 16 15 15 16 16
25 23 17 15 22 22 18 11 11 12 12 13 13 13 14 13 16 16 13 10 10 14 19 21 21 21 22 22 22 22 21 23 26 26 24 22 21 19 17 17 17 17 16
25 23 18 18 22 18 14 12 12 12 13 13 14 14 12 12 15 16 16 11 9 9 12 18 23 23 23 22 23 23 21 21 25 26 25 23 22 22 20 19 18 17 17
25 23 18 20 21 13 11 12 14 13 12 13 15 14 13 14 13 14 16 13 9 9 10 12 14 18 23 22 22 23 23 22 24 27 27 26 25 24 23 21 20 19 18
25 22 17 18 18 12 14 15 14 15 12 12 11 13 12 13 15 13 13 13 11 8 8 10 11 12 14 22 24 23 24 24 25 26 29 29 28 27 26 25 23 21 20
24 21 18 15 15 12 14 15 15 12 12 11 11 11 7 8 6 10 9 11 12 9 9 8 10 11 11 13 18 24 24 25 26 27 29 30 30 30 29 28 26 24 22
22 21 20 18 15 10 11 14 14 14 13 11 9 6 6 6 12 11 12 10 7 7 9 9 10 11 13 11 14 21 25 25 26 28 29 31 32 32 31 29 28 27 24
22 21 20 20 16 12 12 13 14 13 13 11 9 7 8 9 7 8 12 12 14 12 9 8 9 10 11 10 13 16 23 25 26 27 28 30 32 32 31 30 29 27 26
20 21 22 20 17 13 11 13 15 14 12 12 10 9 9 9 11 9 13 16 13 11 10 10 7 7 9 10 10 13 18 22 26 26 26 28 31 32 32 31 30 28 27
13 19 22 21 19 14 12 13 14 15 13 14 12 9 10 9 9 9 11 15 16 14 15 12 10 6 5 7 10 12 14 17 20 23 23 24 27 29 31 31 31 31 30
11 10 20 18 17 17 18 16 15 15 15 15 13 10 10 11 12 12 13 14 17 15 11 12 10 6 4 4 6 10 11 13 13 14 16 17 19 23 27 30 32 33 32
10 15 20 20 20 20 20 16 13 15 14 14 15 13 11 11 12 13 13 13 14 14 11 10 10 9 5 5 9 12 10 13 13 13 13 15 15 16 20 24 28 32 33
16 19 20 18 19 20 19 15 13 16 15 14 14 13 11 12 12 13 14 14 14 13 13 10 7 6 4 3 9 10 9 14 17 17 17 17 17 17 18 21 24 28 31
18 16 15 16 16 17 17 15 16 16 18 16 13 13 13 12 12 13 14 14 15 15 14 8 7 6 7 6 5 7 9 13 17 19 20 19 19 19 20 21 22 25 29
16 13 14 15 17 17 15 16 17 19 18 16 13 13 15 15 13 12 12 13 14 14 16 14 11 10 9 7 4 2 4 6 9 17 19 20 20 21 21 20 21 23 27
14 15 16 16 18 18 17 17 18 21 18 14 13 14 15 13 15 12 10 11 11 12 12 13 10 8 9 6 5 3 3 5 5 12 17 18 19 20 20 20 22 25 29
12 14 13 15 17 18 18 17 16 20 16 12 12 14 15 15 14 12 11 9 8 8 7 8 8 6 5 4 3 3 4 4 4 8 11 13 15 17 19 21 25 28 32
12 11 11 14 16 17 18 16 17 18 12 10 10 13 14 14 15 14 10 7 5 4 4 5 6 5 4 4 3 3 4 4 5 5 6 8 13 17 22 27 30 32 34
15 12 13 15 16 16 15 18 18 11 8 8 10 12 14 18 21 18 13 12 9 4 3 3 4 3 3 3 3 4 5 4 4 5 8 8 10 10 13 25 31 36 37
12 12 14 16 17 17 26 30 16 8 8 9 10 11 14 16 20 24 25 25 23 15 9 5 3 2 2 2 2 3 5 6 6 7 8 8 9 12 11 14 29 35 36
11 12 13 14 15 19 29 27 19 12 11 11 10 11 13 16 19 16 21 25 24 27 23 12 9 8 5 5 4 3 5 7 4 8 11 9 9 12 11 21 31 33 34
10 10 11 13 15 20 29 26 22 14 11 12 12 12 13 15 19 19 17 17 17 18 20 15 13 13 13 10 6 4 3 4 5 5 8 9 9 11 12 16 28 31 32
9 9 10 12 14 18 27 26 22 11 11 13 14 16 16 14 25 26 18 17 17 17 20 25 25 23 26 28 20 6 2 7 10 5 4 6 9 10 10 11 21 30 31
10 11 11 11 13 13 24 26 23 11 12 11 11 14 22 23 26 26 17 16 17 16 17 18 20 23 21 23 28 17 9 1 8 5 2 6 9 8 8 6 9 18 24
Wind_Direction
351 347 340 339 339 346 343 335 331 332 331 325 323 321 314 305 288 272 256 201 190 193 205 220 228 230 227 224 224 218 209 200 196 193 190 190 185 177 176 178 181 182 179
350 346 338 337 341 344 336 332 333 333 329 327 323 322 316 308 298 282 266 221 202 198 203 217 228 234 233 228 225 222 214 206 199 193 190 189 187 182 180 181 182 182 180
350 345 338 336 342 339 334 334 333 336 333 330 325 322 318 315 310 298 277 246 218 211 206 213 224 231 235 234 229 225 218 211 203 194 189 188 188 186 184 183 184 183 181
350 345 338 338 341 338 336 335 339 341 336 330 325 317 311 308 305 302 292 270 233 215 213 213 219 226 232 235 234 230 223 214 205 195 188 187 189 189 190 187 185 184 182
348 342 336 339 339 336 336 336 339 340 335 330 322 311 306 304 300 298 293 282 263 231 206 211 215 221 227 232 234 233 226 217 205 196 189 188 191 192 192 191 187 184 184
346 340 338 340 337 333 333 333 335 336 331 328 322 315 308 296 286 280 280 278 266 249 224 210 208 220 224 227 231 233 228 218 205 199 193 190 193 194 193 193 189 187 186
343 339 345 340 336 332 331 331 332 330 331 331 328 323 302 280 262 259 260 262 259 251 238 219 206 203 214 225 228 229 229 221 209 203 199 195 194 193 194 192 190 188 189
340 340 343 338 333 329 328 328 328 328 328 334 327 324 318 308 338 298 275 254 245 239 240 228 213 209 205 205 221 224 228 226 215 206 202 199 197 195 196 193 190 189 190
336 338 339 337 331 328 324 325 324 327 323 320 320 320 319 322 328 308 319 318 308 262 237 232 218 212 211 203 203 217 220 226 223 212 205 202 199 199 197 195 191 190 190
333 337 338 336 331 328 324 324 325 320 317 314 313 298 288 296 297 308 311 314 325 314 289 250 226 210 207 206 205 205 213 218 224 220 209 203 202 202 201 197 194 191 190
333 336 337 334 329 326 324 323 321 315 312 306 305 305 296 284 271 277 290 300 308 307 314 305 278 222 199 199 202 203 208 214 220 221 215 205 204 205 204 200 197 193 191
332 335 334 332 326 326 326 322 318 314 308 303 300 300 298 287 276 271 274 287 297 302 312 306 302 274 212 186 195 200 206 214 220 218 215 209 205 205 205 202 199 195 193
331 327 332 328 326 327 325 323 320 315 309 303 300 296 293 287 279 270 269 275 283 291 296 298 291 282 240 185 186 198 206 211 218 216 213 213 210 209 207 203 200 197 196
324 325 329 327 329 328 325 322 320 316 313 309 302 297 295 288 278 267 260 262 271 279 281 275 294 289 261 200 191 190 201 211 220 223 220 219 220 218 214 207 202 197 195
326 328 329 331 330 327 324 323 320 316 316 311 303 299 298 293 282 269 257 247 250 261 272 276 277 278 286 225 189 184 191 207 218 226 226 223 222 222 219 213 205 197 192
326 327 331 332 329 326 324 325 321 315 315 310 306 306 305 299 290 274 255 243 238 244 256 271 275 300 330 326 214 180 192 207 214 220 225 225 222 220 218 215 207 198 190
327 330 332 331 329 326 325 325 322 318 315 311 312 313 310 306 299 286 262 243 236 234 245 257 267 280 292 306 291 222 205 205 210 213 218 222 222 220 217 213 205 194 183
327 331 331 330 328 326 322 322 321 320 316 315 320 320 319 318 311 302 283 254 239 233 237 248 256 261 262 266 264 244 224 206 198 205 210 216 218 218 212 202 191 177 168
324 328 329 329 325 321 318 315 314 314 312 311 321 326 328 328 325 315 300 280 257 246 240 249 254 252 253 249 252 249 229 205 190 187 192 198 202 198 186 173 163 155 149
324 323 325 324 320 317 312 309 311 311 309 310 329 335 335 341 339 334 331 324 299 274 262 259 258 253 246 246 221 215 217 195 179 163 151 148 152 154 154 150 144 137 133
325 321 323 320 317 318 315 316 316 320 324 336 348 351 350 1 4 5 11 11 7 354 324 288 266 251 237 227 221 196 204 183 166 155 141 135 127 126 131 131 129 127 126
321 323 322 320 320 326 324 330 349 6 7 7 10 7 2 8 15 12 20 25 27 27 19 7 337 307 302 305 282 223 198 184 178 165 145 127 123 121 119 121 125 124 126
324 323 321 322 323 324 334 347 25 32 21 17 21 22 18 14 24 16 17 23 23 26 31 29 22 15 3 348 323 272 223 188 162 156 140 125 122 120 121 129 129 128 128
320 316 318 325 330 334 344 2 26 24 23 24 26 27 26 19 28 26 19 22 22 21 25 29 30 23 17 10 341 296 268 157 117 116 131 123 120 116 118 124 128 129 130
322 319 322 328 334 337 351 14 30 18 23 25 22 23 27 25 30 30 23 22 22 18 19 27 31 32 30 28 24 15 359 176 146 110 71 111 120 105 93 103 117 120 122
331 332 335 334 336 340 357 17 36 27 26 23 19 15 22 29 30 34 28 23 26 17 14 17 22 24 26 27 28 25 6 218 141 121 57 115 126 115 94 55 81 107 113
Height
1521 1517 1513 1510 1507 1503 1499 1496 1494 1492 1491 1491 1491 1491 1491 1492 1493 1495 1496 1497 1498 1500 1502 1504 1506 1508 1511 1514 1516 1519 1523 1526 1529 1532 1535 1539 1542 1545 1548 1552 1555 1558 1561
1520 1515 1511 1508 1504 1500 1496 1493 1490 1487 1485 1485 1484 1484 1484 1485 1486 1488 1490 1491 1492 1494 1496 1498 1499 1501 1504 1508 1511 1514 1517 1520 1524 1527 1531 1535 1538 1541 1545 1548 1552 1555 1558
1519 1514 1510 1506 1502 1498 1494 1490 1486 1483 1480 1479 1478 1477 1478 1478 1478 1480 1482 1484 1485 1487 1489 1491 1493 1495 1497 1500 1504 1508 1512 1515 1518 1522 1526 1530 1534 1538 1541 1545 1548 1552 1555
1516 1512 1508 1505 1500 1496 1492 1487 1483 1478 1475 1473 1471 1471 1471 1471 1471 1472 1474 1477 1478 1480 1482 1484 1487 1489 1491 1493 1497 1501 1505 1509 1512 1517 1521 1525 1530 1534 1538 1541 1545 1548 1552
1514 1510 1507 1503 1499 1494 1490 1485 1481 1476 1471 1468 1466 1465 1464 1463 1464 1465 1466 1469 1472 1474 1476 1478 1480 1483 1485 1487 1490 1494 1498 1502 1506 1511 1516 1520 1525 1530 1534 1537 1541 1544 1548
1513 1509 1505 1501 1497 1493 1488 1484 1479 1474 1470 1466 1462 1458 1457 1456 1456 1458 1460 1462 1465 1468 1470 1473 1475 1477 1479 1482 1484 1487 1491 1495 1500 1504 1509 1514 1519 1525 1530 1533 1536 1540 1544
1511 1508 1503 1499 1495 1491 1487 1483 1478 1473 1468 1464 1459 1452 1449 1450 1450 1450 1452 1455 1458 1461 1464 1466 1469 1471 1473 1475 1478 1481 1484 1488 1493 1497 1503 1508 1513 1518 1524 1528 1531 1535 1539
1510 1506 1502 1497 1493 1489 1485 1481 1477 1472 1468 1465 1461 1455 1448 1445 1444 1444 1446 1448 1451 1455 1457 1459 1462 1464 1467 1469 1471 1474 1478 1481 1486 1490 1496 1502 1507 1511 1517 1522 1526 1530 1535
1508 1504 1500 1495 1491 1487 1482 1478 1475 1471 1466 1464 1462 1460 1456 1449 1442 1438 1438 1440 1444 1448 1450 1452 1454 1457 1460 1463 1465 1468 1471 1475 1479 1484 1488 1494 1501 1505 1510 1515 1520 1525 1530
1505 1501 1496 1492 1488 1484 1479 1475 1472 1468 1464 1461 1459 1458 1457 1453 1450 1439 1431 1432 1433 1437 1442 1445 1447 1449 1453 1456 1459 1462 1465 1468 1472 1477 1482 1487 1493 1498 1503 1508 1514 1519 1524
1501 1497 1492 1488 1484 1480 1476 1472 1468 1464 1461 1458 1455 1453 1451 1450 1448 1445 1436 1426 1426 1428 1431 1435 1439 1442 1445 1448 1452 1455 1459 1462 1466 1470 1475 1480 1486 1491 1497 1502 1508 1513 1519
1498 1493 1489 1484 1480 1476 1471 1467 1463 1460 1457 1454 1451 1448 1446 1444 1442 1441 1437 1431 1424 1421 1423 1426 1429 1433 1437 1441 1445 1449 1452 1456 1460 1464 1469 1474 1479 1484 1490 1495 1501 1507 1513
1495 1490 1485 1480 1476 1471 1467 1463 1458 1455 1451 1448 1446 1443 1440 1438 1436 1435 1434 1430 1425 1418 1419 1420 1423 1427 1431 1434 1438 1442 1446 1450 1454 1458 1463 1467 1473 1478 1484 1489 1495 1501 1506
1494 1488 1483 1478 1472 1467 1462 1458 1454 1450 1446 1443 1440 1437 1433 1430 1428 1428 1428 1427 1424 1418 1414 1414 1417 1421 1425 1429 1432 1436 1439 1443 1448 1452 1456 1461 1466 1471 1477 1482 1488 1493 1499
1492 1486 1480 1474 1469 1463 1458 1454 1449 1445 1441 1437 1434 1431 1427 1423 1420 1419 1419 1420 1421 1418 1412 1408 1413 1416 1420 1423 1426 1430 1434 1438 1442 1446 1450 1454 1459 1464 1470 1475 1481 1487 1492
1489 1483 1477 1471 1465 1460 1455 1450 1445 1440 1436 1432 1429 1425 1420 1416 1412 1410 1410 1410 1411 1412 1409 1405 1408 1411 1414 1416 1420 1424 1428 1432 1435 1439 1443 1447 1452 1457 1462 1468 1474 1480 1486
1486 1481 1474 1468 1462 1456 1451 1446 1441 1436 1432 1428 1424 1419 1414 1409 1405 1402 1401 1400 1401 1403 1402 1400 1402 1404 1408 1411 1414 1419 1423 1426 1429 1433 1436 1441 1445 1450 1455 1461 1467 1473 1479
1484 1478 1472 1465 1459 1453 1448 1442 1437 1432 1428 1425 1420 1415 1410 1404 1399 1395 1393 1392 1392 1393 1395 1396 1396 1399 1402 1406 1409 1413 1417 1420 1423 1427 1430 1434 1438 1443 1448 1454 1460 1466 1473
1481 1476 1469 1463 1456 1450 1444 1439 1434 1429 1426 1422 1417 1412 1407 1401 1395 1390 1387 1385 1384 1386 1387 1389 1390 1393 1396 1400 1403 1407 1411 1415 1418 1421 1424 1427 1432 1437 1442 1447 1453 1460 1466
1478 1473 1467 1461 1454 1447 1442 1436 1431 1426 1423 1420 1416 1411 1405 1400 1393 1387 1383 1380 1379 1380 1381 1383 1385 1387 1390 1394 1398 1402 1406 1409 1413 1416 1419 1423 1426 1431 1436 1441 1446 1453 1460
1476 1471 1465 1458 1452 1445 1439 1433 1428 1424 1421 1418 1414 1410 1405 1400 1393 1387 1382 1378 1376 1376 1376 1378 1380 1382 1385 1389 1392 1396 1401 1405 1409 1412 1415 1419 1423 1427 1432 1437 1443 1449 1456
1474 1469 1463 1456 1450 1444 1437 1430 1425 1422 1420 1417 1414 1410 1405 1399 1393 1387 1382 1377 1375 1373 1373 1374 1375 1378 1381 1384 1388 1392 1396 1400 1404 1408 1411 1415 1420 1425 1430 1435 1440 1446 1452
1473 1467 1461 1456 1449 1442 1436 1430 1425 1423 1421 1418 1415 1411 1406 1401 1395 1388 1383 1378 1375 1374 1373 1373 1373 1375 1377 1380 1382 1386 1390 1394 1398 1402 1407 1412 1417 1422 1429 1435 1440 1446 1452
1473 1467 1462 1456 1450 1443 1438 1432 1428 1425 1423 1420 1417 1414 1409 1404 1399 1393 1387 1382 1378 1375 1374 1372 1372 1373 1374 1375 1378 1381 1385 1389 1393 1397 1402 1408 1415 1421 1429 1436 1443 1448 1454
1473 1468 1463 1457 1452 1446 1441 1436 1431 1428 1426 1423 1420 1417 1413 1408 1404 1397 1391 1386 1382 1379 1376 1374 1372 1371 1371 1372 1374 1378 1382 1384 1386 1391 1396 1402 1411 1418 1428 1438 1446 1451 1457
1474 1469 1464 1459 1454 1450 1445 1440 1435 1432 1429 1427 1424 1420 1418 1414 1409 1403 1397 1392 1387 1383 1380 1376 1373 1371 1370 1371 1372 1375 1378 1380 1380 1386 1391 1398 1406 1414 1427 1437 1445 1452 1458